Location: Newark
(46.9000°N, 28.3500°E)
Time: 11:56:20
(UTC+00:00)

Vanguard 1 Rocket - Pass Details

Date: 27 August 2019
Orbit: 651 x 4225 km, 34.3° (Epoch: 19 September)

Event Time Altitude Azimuth Distance (km) Brightness Sun altitude
Rises 01:50:08 0° 248° (WSW) 2,970 - -14.6°
Reaches altitude 10° 01:52:44 10° 230° (SW) 2,147 - -14.2°
Exits shadow 01:54:27 17° 209° (SSW) 1,814 8.4 -14.0°
Maximum altitude 01:56:15 20° 181° (S) 1,771 8.6 -13.7°
Drops below altitude 10° 02:00:45 10° 135° (SE) 2,842 10.1 -13.1°
Sets 02:04:54 0° 121° (ESE) 4,314 11.3 -12.5°
